Weather in Mahdalynivka

Ukraine / Dnipropetrovsk Region     48˚54′56″N   34˚55′05″E
temp.,
°C
wind,
m/s
gust,
m/s
humid.,
%
clouds,
%
prec.,
mm/h
press.,
hPa
HPBL,
m
3 december, thu
thu323:00e487998 0.0 1029472
02:00ese378498 0.0 1029419
05:00−1˚ese489399 0.4 1028390
08:00ese4880100 0.4 1029398
11:00+2˚ese4784100 0.0 1029452
14:00+2˚ese468295 0.0 1028446
17:00+1˚ese5880100 0.0 1028416
20:00+1˚ese5980100 0.0 1028427
4 december, fri
fri423:00ese498988 0.0 1028369
02:00+1˚ese598988 0.0 1028416
05:00+1˚ese5886100 0.0 1027511
08:00−1˚ese61182100 0.0 1029375
11:00+1˚ese6107691 0.0 1028486
14:00+2˚ese597780 0.0 1028560
17:00+2˚ese6108295 0.0 1028542
20:00+1˚ese6118196 0.0 1029550
5 december, sat
sat523:00ese5108455 0.0 1029483
02:00+1˚ese598072 0.0 1030619
05:00+1˚ese51077100 0.0 1030586
08:00e61072100 0.0 1031457
11:00+1˚ese696733 0.0 1031519
14:00+3˚e696217 0.0 1031557
17:00e6126411 0.0 1031420
20:00−2˚e612515 0.0 1033378
6 december, sun
sun623:00−3˚e613510 0.0 1033362
02:00−3˚e511510 0.0 1034348
05:00−4˚e612480 0.0 1034340
08:00−4˚e613480 0.0 1035366
11:00−1˚e711380 0.0 1035482
14:00e712390 0.0 1034556
17:00−3˚e614490 0.0 1034449
20:00−4˚e714640 0.0 1035458
7 december, mon
mon723:00−5˚e713680 0.0 1035445
02:00−5˚e714650 0.0 1035447
05:00−6˚e713610 0.0 1035434
08:00−6˚e714670 0.0 1035461
11:00−3˚e814520 0.0 1035562
14:00−1˚e813460 0.0 1034664
17:00−4˚e714550 0.0 1034532
20:00−4˚e715570 0.0 1034495